Powrót do katalogu

OPS 4682 DEB

AktywnyPO
NORAD 51508·DEBRIS·🇺🇸 United States

Wystrzelony Apr 3, 1965 z Vandenberg Space Force Base

Loading…

Następne Przeloty (najbliższe 24 godziny)

TLE

ŚwieżeSource: Space-Track

Epoka: Sep 13, 2026, 03:26 UTC

1 51508U 65027GU  26256.14349863  .00000196  00000-0  64250-3 0  9994
2 51508  90.2602  18.2460 0028623 175.8549 304.7272 12.97978259615603

Śledź OPS 4682 DEB w czasie rzeczywistym z AllMySat

Download on the App Store